Startseite
Über Mich
AHP4
Galerie
Sehschlangen
Tourenbuch
Bookmarks
Elektronik
Bewertung
Geschichten
[Tagesmessung] [Jahreswerte] [Information]

Messwerte vom 28.04.2022

Die letzten Messwerte von 23:58:46 Uhr:
KategorieMesswert
Temperatur [°C]6
Luftdruck [mBar]1013
Sonneneinstrahlung0
Wind [km/h]0 aus Nordost
Niederschlag [l/m²]0
rel.Luftfeucht.81.2%
CO2 [ppm]451

Diagramme
Messwerte vom 28.04.2022
Tagesaggregation
KategorieMinimumMaximumSchnittSumme
Temperatur [°C]12310.6167
Luftdruck [mBar]101010141012.6292
Sonneneinstrahlung247130.6167
Wind [km/h]14
rF [%]30.395.266.48
Niederschlag [l/m²]0
CO2 [ppm]401468433.8
Einordnung alsVegetationstag

Messungen an benachbarten Tagen: Zur Jahresaggregation 2022
Tabelle aller Messwerte
UhrzeitTemperatur [°C]Luftdruck [mBar]SonneWind [km/h]RichtungRegen [l/m²]rF [%]CO2 [ppm]
00:01:46 9 1011 0 7 N 0 69.2 419
00:04:50 9 1010 0 5 W 0 69.2 418
00:07:46 9 1011 0 4 NW 0 69.3 416
00:10:45 9 1011 0 5 N 0 69.3 410
00:13:46 8 1011 0 2 W 0 69.7 416
00:16:44 8 1011 0 5 N 0 69.9 419
00:19:45 8 1010 0 2 N 0 70.3 420
00:22:47 8 1011 0 10 W 0 70.6 419
00:25:48 8 1011 0 0 NO 0 70.9 418
00:28:48 8 1011 0 5 NW 0 71.1 413
00:31:45 8 1011 0 0 O 0 71.4 413
00:34:46 8 1011 0 2 S 0 71.6 416
00:37:46 7 1012 0 0 SO 0 72.1 422
00:40:50 7 1010 0 0 SO 0 72.8 419
00:43:47 7 1012 0 0 SO 0 73.5 416
00:46:47 6 1011 0 0 SO 0 74.5 416
00:49:47 6 1011 0 0 SO 0 74.9 414
00:52:47 6 1011 0 1 SO 0 75.7 416
00:55:49 6 1011 0 0 NW 0 76.7 423
00:58:46 6 1011 0 0 NW 0 76.9 422
01:01:47 6 1012 0 0 SO 0 78.1 417
01:04:46 6 1011 0 0 NW 0 78.6 416
01:07:44 6 1012 0 1 S 0 78.4 421
01:10:46 6 1012 0 0 S 0 78.4 422
01:13:47 5 1011 0 0 SO 0 78.5 427
01:16:49 5 1011 0 0 SO 0 78.5 427
01:19:46 5 1012 0 0 SO 0 78.5 423
01:22:46 5 1011 0 1 SO 0 78.9 422
01:25:47 5 1012 0 0 SO 0 80 422
01:28:46 5 1012 0 0 SO 0 80.5 428
01:31:45 5 1012 0 0 SO 0 80.3 427
01:34:48 5 1011 0 0 SO 0 81.1 419
01:37:47 5 1012 0 0 SO 0 81.1 418
01:40:46 5 1011 0 0 SO 0 80.8 422
01:43:48 5 1012 0 0 SO 0 80.8 432
01:46:45 5 1011 0 0 SO 0 81.8 439
01:49:46 5 1011 0 0 SO 0 82.3 434
01:52:47 5 1011 0 0 SO 0 83.1 427
01:55:48 4 1012 0 0 SO 0 83.3 424
01:58:46 4 1011 0 0 SO 0 82.9 421
02:01:46 4 1011 0 0 SO 0 83 424
02:04:47 4 1011 0 0 SO 0 83.2 427
02:07:47 4 1012 0 0 SO 0 83.3 425
02:10:47 4 1012 0 0 SO 0 83.3 428
02:13:51 4 1012 0 0 SO 0 84.5 429
02:16:45 4 1011 0 0 SO 0 85 436
02:19:48 4 1010 0 0 SO 0 85.2 430
02:22:48 4 1012 0 0 SO 0 85.2 424
02:25:47 4 1012 0 0 SO 0 84.8 427
02:28:46 4 1012 0 0 SO 0 84.8 422
02:31:50 4 1012 0 0 SO 0 85 425
02:34:47 4 1012 0 0 SO 0 86.1 422
02:37:47 4 1011 0 0 SW 0 86.6 430
02:40:49 4 1012 0 0 SW 0 86.7 428
02:43:46 4 1012 0 0 SW 0 86.6 425
02:46:51 4 1012 0 0 SW 0 86.6 422
02:49:51 4 1012 0 0 SW 0 86.8 425
02:52:46 4 1011 0 0 SW 0 87.3 423
02:55:48 4 1012 0 0 SW 0 87.8 430
02:58:47 4 1012 0 0 SO 0 88.2 425
03:01:49 4 1012 0 0 SO 0 88.5 427
03:04:47 4 1012 0 0 SO 0 88.5 430
03:07:47 4 1012 0 0 SW 0 88.3 431
03:10:48 4 1012 0 0 SW 0 88.1 427
03:13:46 3 1012 0 0 SW 0 88.6 425
03:16:47 3 1012 0 0 SW 0 88.8 428
03:19:47 3 1012 0 0 SO 0 88.9 433
03:22:49 3 1011 0 0 SO 0 89.1 436
03:25:46 3 1013 0 0 SO 0 89.3 440
03:28:47 3 1012 0 0 SO 0 89.4 431
03:31:47 3 1012 0 0 SO 0 89.4 433
03:34:49 3 1012 0 0 SO 0 89.3 436
03:37:48 3 1012 0 0 SO 0 89.3 436
03:40:47 3 1012 0 0 SO 0 90.1 445
03:43:47 3 1012 0 0 SO 0 90.4 446
03:46:46 3 1012 0 1 SO 0 90.4 440
03:49:47 3 1013 0 0 SO 0 90.5 439
03:52:45 3 1012 0 0 SO 0 90.6 439
03:55:49 3 1013 0 0 SO 0 90.2 445
03:58:48 3 1012 0 0 SO 0 90.5 445
04:01:47 3 1012 0 0 SO 0 91.1 436
04:04:47 3 1013 0 0 SO 0 91.4 437
04:07:48 3 1012 0 0 SO 0 91.2 431
04:10:47 3 1012 0 0 SO 0 91.1 439
04:13:45 2 1012 0 0 SO 0 90.9 436
04:16:47 2 1012 0 0 SO 0 90.9 436
04:19:48 2 1012 0 0 SO 0 91.4 433
04:22:47 2 1012 0 0 SO 0 91.9 439
04:25:48 3 1012 0 0 SW 0 92.2 442
04:28:45 3 1013 0 0 S 0 92.4 440
04:31:45 3 1012 0 0 S 0 92.4 430
04:34:46 2 1013 0 0 S 0 92.2 433
04:37:46 2 1013 0 0 S 0 92.1 437
04:40:50 2 1012 0 0 S 0 92.1 442
04:43:45 2 1013 0 0 S 0 92.2 436
04:46:46 2 1012 0 0 S 0 92.1 440
04:49:45 2 1013 0 0 S 0 92 439
04:52:46 2 1013 0 0 S 0 92.1 442
04:55:47 2 1012 0 0 S 0 92.9 445
04:58:45 2 1012 0 0 S 0 93.1 439
05:01:47 2 1012 0 0 S 0 93.1 445
05:04:46 2 1013 0 0 S 0 93.1 448
05:07:45 2 1012 0 0 S 0 93.5 443
05:10:46 2 1012 0 0 S 0 93.3 439
05:13:46 2 1012 0 0 S 0 93.3 434
05:16:46 2 1012 0 0 S 0 93.2 443
05:19:45 2 1013 0 0 S 0 93.3 442
05:22:46 2 1012 0 0 S 0 93.7 445
05:25:45 2 1012 3 0 S 0 94.1 445
05:28:44 2 1012 5 0 S 0 94.1 448
05:31:45 2 1012 7 0 S 0 93.9 448
05:34:46 1 1013 11 0 S 0 93.7 448
05:37:45 1 1013 17 0 S 0 93.8 442
05:40:45 1 1012 24 0 S 0 93.7 443
05:43:47 1 1013 32 0 S 0 93.8 451
05:46:45 1 1012 42 0 S 0 94.3 454
05:49:46 1 1012 53 0 S 0 94.3 451
05:52:44 1 1012 65 0 S 0 94.4 451
05:55:45 1 1012 76 0 S 0 94.7 448
05:58:46 1 1013 88 0 S 0 95 451
06:01:47 1 1012 98 0 S 0 94.8 455
06:04:46 1 1012 108 0 S 0 94.6 452
06:07:47 1 1013 117 0 S 0 94.6 457
06:10:47 1 1012 125 0 S 0 94.7 457
06:13:49 1 1013 132 0 S 0 94.8 462
06:16:45 1 1012 138 0 S 0 95.1 454
06:19:47 1 1012 143 0 N 0 95 448
06:22:45 1 1013 148 0 N 0 95 451
06:25:45 2 1012 153 0 S 0 95.1 448
06:28:48 2 1013 156 0 W 0 95.2 448
06:31:46 2 1013 160 0 S 0 95.2 445
06:34:46 2 1013 163 0 W 0 95.1 444
06:37:49 2 1013 166 0 W 0 94.9 454
06:40:48 3 1013 168 0 W 0 94.5 456
06:43:47 3 1013 170 0 W 0 93.8 454
06:46:47 3 1013 172 0 SO 0 93.4 454
06:49:49 4 1013 174 0 S 0 92.2 454
06:52:45 5 1012 176 0 S 0 91.4 454
06:55:49 6 1013 178 0 S 0 90.4 452
06:58:47 6 1013 179 0 SO 0 89 454
07:01:47 7 1013 180 0 SO 0 87.2 451
07:04:46 7 1013 181 0 S 0 85.5 448
07:07:47 7 1013 182 0 S 0 83.8 451
07:10:46 7 1013 183 0 S 0 83.2 451
07:13:50 7 1013 184 0 S 0 82 452
07:16:49 7 1013 186 0 S 0 81.5 454
07:19:46 8 1013 187 0 S 0 81.3 443
07:22:46 8 1013 187 0 S 0 80.7 457
07:25:45 8 1013 187 0 S 0 79 454
07:28:47 8 1013 188 0 S 0 78.2 452
07:31:48 8 1013 188 0 SW 0 78.2 458
07:34:47 8 1013 189 0 NW 0 76.6 454
07:37:49 7 1013 189 0 W 0 78 460
07:40:47 6 1013 190 1 W 0 81 454
07:43:47 6 1013 190 0 SW 0 81.6 460
07:46:47 5 1013 190 0 S 0 83.5 462
07:49:46 5 1013 190 0 S 0 84.4 457
07:52:46 5 1013 191 0 S 0 85.3 456
07:55:48 5 1013 191 0 SW 0 86.2 456
07:58:48 5 1013 191 0 W 0 88.5 459
08:01:49 5 1013 192 0 W 0 88.8 463
08:04:49 5 1013 192 1 SW 0 89.4 460
08:07:52 6 1013 192 0 SO 0 89.6 462
08:10:47 6 1013 193 2 SW 0 89.7 457
08:13:48 6 1013 193 2 S 0 89.2 462
08:16:49 6 1013 193 4 W 0 89.3 457
08:19:45 6 1013 194 1 S 0 89.7 451
08:22:48 6 1013 194 1 NW 0 89.5 446
08:25:50 6 1013 194 0 W 0 89.3 457
08:28:47 6 1013 194 1 SW 0 88.9 462
08:31:48 6 1013 194 0 W 0 89.2 460
08:34:45 6 1013 194 1 S 0 89.2 457
08:37:47 6 1013 195 4 SW 0 89.2 456
08:40:47 7 1013 194 3 W 0 88.5 451
08:43:50 7 1013 195 2 NW 0 88.3 446
08:46:46 7 1013 195 0 W 0 88.3 451
08:49:48 7 1013 195 4 SW 0 88.2 460
08:52:48 7 1013 195 1 O 0 87.6 451
08:55:51 7 1013 195 0 SO 0 87.6 445
08:58:45 7 1013 196 0 O 0 87.4 442
09:01:47 7 1013 196 1 SW 0 87.3 451
09:04:49 7 1013 196 0 NW 0 87.2 449
09:07:47 7 1013 196 5 W 0 86.5 451
09:10:48 8 1013 196 3 NW 0 86.3 451
09:13:47 8 1013 196 0 S 0 86.8 457
09:16:50 8 1013 196 3 S 0 87.2 460
09:19:51 8 1013 197 0 SO 0 85.8 468
09:22:48 8 1013 197 1 SW 0 85.2 460
09:25:46 8 1013 198 1 S 0 85 463
09:28:48 8 1013 198 0 S 0 84.3 454
09:31:48 9 1013 198 5 NW 0 84.3 454
09:34:48 9 1013 199 1 NW 0 83.6 454
09:37:49 9 1013 200 3 W 0 82.5 451
09:40:50 9 1013 200 6 NW 0 81.4 451
09:43:47 9 1013 201 2 W 0 80 448
09:46:48 9 1013 202 2 S 0 80 454
09:49:50 9 1013 202 0 S 0 79.5 458
09:52:48 9 1013 203 1 W 0 79.2 457
09:55:47 9 1013 204 0 S 0 78.9 454
09:58:49 10 1013 204 2 SW 0 79 451
10:01:32 8 1013 205 2 SW 0 71.9 457
10:04:49 10 1013 205 1 NW 0 76.8 459
10:07:50 10 1013 205 5 NW 0 77 460
10:10:48 10 1013 205 1 S 0 76.8 454
10:13:48 10 1013 205 1 NW 0 75.5 454
10:16:46 10 1013 205 3 SW 0 75.7 454
10:19:46 10 1013 205 1 W 0 75.7 457
10:22:48 11 1013 205 3 S 0 74.8 453
10:25:48 11 1013 206 3 NW 0 73 451
10:28:46 11 1013 205 1 W 0 73.7 451
10:31:49 11 1013 206 6 W 0 74.5 451
10:34:48 11 1013 206 1 W 0 73.5 448
10:37:47 11 1013 206 7 SW 0 73.7 451
10:40:48 11 1013 206 0 SW 0 74.5 451
10:43:48 12 1013 206 1 S 0 69.8 454
10:46:49 12 1013 206 0 S 0 69.6 451
10:49:47 12 1013 207 5 W 0 70.5 448
10:52:49 12 1014 207 1 S 0 70.1 451
10:55:49 12 1013 207 2 SW 0 69 456
10:58:49 12 1013 207 4 SW 0 66.4 452
11:01:49 12 1013 207 2 SO 0 66.3 451
11:04:49 12 1013 207 1 SW 0 68.9 448
11:07:46 12 1013 208 3 W 0 69 458
11:10:48 13 1013 208 2 W 0 69 454
11:13:48 13 1013 208 2 SW 0 67.4 456
11:16:52 13 1013 208 6 SW 0 67.2 451
11:19:47 13 1013 208 4 W 0 64.6 451
11:22:47 13 1013 209 6 NW 0 64 448
11:25:48 12 1014 209 9 NW 0 64.7 445
11:28:46 12 1013 209 0 W 0 64.8 445
11:31:48 13 1013 208 6 SW 0 66.1 448
11:34:47 13 1013 209 1 W 0 66.1 442
11:37:47 13 1013 209 0 W 0 67.2 440
11:40:46 14 1013 210 1 NO 0 65.1 439
11:43:46 13 1013 210 2 S 0 63.1 440
11:46:49 13 1013 210 1 S 0 60.3 445
11:49:47 14 1013 210 11 N 0 61.9 445
11:52:46 14 1013 211 0 S 0 63.9 445
11:55:48 14 1013 211 8 NW 0 64.5 443
11:58:45 14 1013 212 0 O 0 65.2 448
12:01:50 15 1013 213 0 SO 0 60.5 444
12:04:49 15 1013 213 2 W 0 62.8 439
12:07:32 13 1013 213 8 NW 0 53.5 442
12:10:47 15 1013 214 3 S 0 58.4 443
12:13:48 15 1013 214 1 W 0 61.2 445
12:16:48 16 1013 216 9 NW 0 55.3 442
12:19:32 14 1013 218 2 NO 0 46.5 436
12:22:48 16 1013 220 7 NW 0 57.1 439
12:25:48 16 1013 222 3 SW 0 57.2 436
12:28:49 18 1013 222 4 SW 0 55 436
12:31:49 17 1013 217 3 S 0 49.2 440
12:34:48 16 1013 212 7 SW 0 52.1 442
12:37:50 16 1014 214 5 SW 0 52.8 440
12:40:48 16 1013 220 8 W 0 54.2 439
12:43:48 17 1013 222 9 W 0 54.6 442
12:46:50 17 1013 222 4 NW 0 53.4 446
12:49:51 18 1013 215 7 NW 0 49.6 439
12:52:48 17 1013 216 5 NW 0 49.9 433
12:55:48 17 1013 224 1 W 0 51.3 434
12:58:48 17 1013 224 1 SW 0 52 436
13:01:49 18 1013 220 5 SW 0 49.8 436
13:04:48 18 1013 225 3 W 0 49.2 439
13:07:48 18 1013 225 2 SW 0 47.6 442
13:10:46 18 1013 223 0 S 0 47.5 439
13:13:49 19 1013 222 1 N 0 46.1 439
13:16:49 19 1013 222 3 S 0 46.3 440
13:19:48 19 1013 222 2 SO 0 46.7 445
13:22:47 19 1013 223 11 N 0 47.3 448
13:25:50 19 1013 223 4 NW 0 46.8 437
13:28:48 18 1013 224 4 W 0 45.5 437
13:31:50 19 1013 224 2 S 0 45.5 430
13:34:46 19 1013 224 3 W 0 45.9 430
13:37:48 20 1013 225 1 SO 0 45.5 430
13:40:50 20 1013 226 2 NW 0 41.3 434
13:43:50 20 1013 227 1 NW 0 41.4 439
13:46:47 20 1013 228 2 S 0 41.4 434
13:49:48 20 1013 230 5 NW 0 40 434
13:52:35 19 1013 231 2 SO 0 40 430
13:55:49 20 1013 231 9 0 40.9 437
13:58:48 19 1013 232 0 SW 0 44.1 431
14:01:47 19 1013 232 9 W 0 43.9 424
14:04:48 20 1013 232 0 W 0 42.9 431
14:07:48 19 1013 232 2 SW 0 43.1 436
14:10:49 20 1013 232 4 W 0 44.1 430
14:13:48 20 1013 234 6 NW 0 44.6 431
14:16:49 20 1013 235 5 W 0 44 422
14:19:49 20 1013 236 10 O 0 42.1 431
14:22:46 20 1013 238 4 SO 0 41.3 421
14:25:47 20 1013 240 2 W 0 42.6 421
14:28:48 20 1013 240 10 NW 0 41.4 416
14:31:48 20 1013 241 5 S 0 40.2 418
14:34:47 20 1013 242 1 S 0 39 421
14:37:50 20 1013 242 5 NW 0 42.2 428
14:40:47 20 1013 242 0 SO 0 42.5 422
14:43:32 19 1013 242 0 NW 0 40 424
14:46:47 19 1013 243 5 N 0 40.4 428
14:49:31 19 1013 243 14 W 0 40 427
14:52:45 17 1013 243 7 W 0 45.6 427
14:55:47 17 1013 244 6 N 0 44.2 416
14:58:45 18 1013 244 4 SW 0 44.3 415
15:01:48 18 1013 244 2 W 0 47.4 422
15:04:49 19 1013 244 6 W 0 43.7 428
15:07:50 18 1013 244 2 NW 0 40.9 427
15:10:49 18 1013 245 7 NW 0 46 427
15:13:46 18 1013 245 5 S 0 46.1 422
15:16:48 20 1013 245 9 NW 0 43.3 422
15:19:48 20 1013 245 0 S 0 41.5 417
15:22:48 21 1013 245 2 NO 0 40.5 419
15:25:47 21 1013 245 6 W 0 40 415
15:28:48 20 1013 245 0 S 0 40.9 416
15:31:46 20 1013 246 8 S 0 41.8 413
15:34:49 21 1013 246 6 NW 0 41.2 422
15:37:48 21 1013 246 2 W 0 40.5 422
15:40:49 21 1013 246 6 W 0 40.2 424
15:43:47 21 1013 246 3 W 0 38 422
15:46:46 21 1013 246 2 0 36.9 416
15:49:47 20 1013 246 3 S 0 35.8 422
15:52:48 21 1013 246 6 NW 0 37.6 424
15:55:46 21 1013 246 6 W 0 38.4 424
15:58:48 22 1013 247 10 SW 0 39 424
16:01:48 21 1013 246 4 W 0 38 413
16:04:48 21 1013 246 1 W 0 38 416
16:07:50 21 1013 246 9 NW 0 39.1 416
16:10:33 20 1013 247 5 NW 0 40 419
16:13:48 20 1013 247 5 W 0 39.3 419
16:16:47 20 1013 247 7 NW 0 39.9 413
16:19:47 21 1013 247 3 0 39.9 407
16:22:48 21 1013 247 2 SW 0 37.4 404
16:25:47 21 1013 247 5 SO 0 36.2 410
16:28:51 20 1013 247 5 W 0 37 415
16:31:47 20 1013 247 4 S 0 38.3 410
16:34:50 21 1012 247 3 W 0 38.8 410
16:37:49 20 1012 247 2 SW 0 38.2 404
16:40:49 20 1013 247 2 SW 0 39.1 405
16:43:48 21 1012 247 0 S 0 39.9 407
16:46:48 22 1012 247 2 SW 0 37.4 404
16:49:50 22 1012 247 5 W 0 37.6 407
16:52:47 22 1013 247 7 W 0 38.1 401
16:55:49 21 1013 247 1 S 0 37.8 407
16:58:48 21 1013 247 2 W 0 36.5 410
17:01:48 21 1012 247 4 NW 0 36.1 404
17:04:47 22 1013 247 4 NO 0 35.6 404
17:07:49 22 1013 247 3 NW 0 35.8 407
17:10:48 22 1013 247 2 SW 0 35.9 407
17:13:48 22 1013 247 2 W 0 35.7 410
17:16:49 22 1013 247 3 NW 0 32.2 409
17:19:46 21 1013 247 7 N 0 32.3 410
17:22:47 21 1013 247 4 NW 0 32.6 410
17:25:44 21 1012 247 8 0 33.1 416
17:28:49 21 1012 247 4 NW 0 34.8 413
17:31:47 21 1013 247 3 NO 0 35.3 415
17:34:48 21 1013 247 0 NW 0 34.1 408
17:37:49 22 1013 247 6 NW 0 33.7 407
17:40:46 22 1013 247 3 S 0 34 410
17:43:49 23 1013 247 5 W 0 34.4 410
17:46:48 23 1012 247 8 NW 0 30.5 407
17:49:48 22 1013 247 1 NW 0 30.3 407
17:52:47 22 1012 247 3 S 0 34 410
17:55:48 22 1013 247 5 NW 0 31.2 421
17:58:48 22 1012 247 0 W 0 31.9 422
18:01:48 23 1012 247 1 W 0 33 410
18:04:47 23 1012 247 3 N 0 30.9 410
18:07:32 21 1013 247 0 N 0 40 413
18:10:49 21 1012 247 0 SW 0 32.2 407
18:13:49 20 1013 246 4 S 0 34.2 407
18:16:47 19 1013 239 0 S 0 35 404
18:19:52 19 1012 245 0 NW 0 36.2 419
18:22:48 18 1013 238 0 W 0 38 418
18:25:48 18 1012 223 0 W 0 38.5 419
18:28:50 18 1012 232 1 SO 0 39.9 413
18:31:49 18 1012 237 3 SW 0 41.2 413
18:34:50 18 1012 234 9 W 0 37.3 413
18:37:47 17 1012 228 2 N 0 36.7 419
18:40:48 17 1013 237 5 NW 0 36.7 420
18:43:48 16 1013 231 3 W 0 37.7 419
18:46:47 16 1013 227 2 W 0 38.3 419
18:49:49 16 1012 228 2 NW 0 39.6 419
18:52:50 16 1013 236 0 NO 0 39.6 419
18:55:48 16 1012 236 4 NW 0 39.2 422
18:58:46 16 1012 220 1 W 0 37.4 419
19:01:49 16 1012 231 1 N 0 38.9 420
19:04:48 16 1012 227 0 O 0 39.8 425
19:07:48 16 1012 236 2 W 0 40.7 424
19:10:52 16 1013 223 2 NW 0 40.7 427
19:13:48 16 1012 220 3 NW 0 40.8 425
19:16:50 15 1013 207 0 NW 0 41 422
19:19:47 15 1013 212 0 NW 0 40.5 416
19:22:48 15 1012 206 0 NW 0 41.8 419
19:25:47 15 1013 209 0 S 0 42.7 424
19:28:47 15 1013 212 0 NW 0 43.5 430
19:31:50 15 1012 218 3 NW 0 46 427
19:34:46 14 1013 204 0 N 0 45.9 421
19:37:47 14 1013 197 0 NW 0 45.7 419
19:40:48 14 1012 219 0 NW 0 45.6 419
19:43:46 14 1013 198 1 N 0 45.9 422
19:46:47 14 1012 192 3 NO 0 46.4 421
19:49:47 14 1012 189 4 NW 0 46.4 418
19:52:49 14 1013 186 5 NW 0 45.8 416
19:55:47 14 1013 184 2 NW 0 45.8 419
19:58:48 14 1013 180 6 NW 0 45.6 419
20:01:46 14 1013 177 1 NW 0 45.6 419
20:04:47 14 1013 173 1 NO 0 45.5 410
20:07:47 14 1013 168 0 NW 0 45.5 418
20:10:49 14 1013 163 0 N 0 46.5 422
20:13:46 13 1013 158 0 N 0 46.5 427
20:16:48 13 1013 150 0 NO 0 46.6 428
20:19:48 13 1013 141 0 NO 0 47.4 424
20:22:49 13 1013 135 0 O 0 47.9 428
20:25:47 13 1013 125 0 O 0 49.1 425
20:28:45 12 1013 114 0 O 0 49.4 431
20:31:48 12 1013 103 0 O 0 49.8 424
20:34:48 12 1013 92 0 O 0 50.4 422
20:37:45 12 1013 80 0 O 0 51.2 416
20:40:47 12 1013 68 0 O 0 51.9 422
20:43:45 11 1013 56 0 O 0 52.2 421
20:46:45 11 1013 45 0 O 0 52.6 422
20:49:47 11 1013 35 0 O 0 53.1 419
20:52:47 11 1013 26 0 O 0 53.4 425
20:55:46 10 1013 18 0 O 0 53.8 424
20:58:46 10 1013 13 0 O 0 54.3 428
21:01:46 10 1013 8 0 O 0 54.7 416
21:04:46 10 1013 5 0 O 0 55.9 420
21:07:45 10 1013 3 0 O 0 56.3 422
21:10:46 10 1013 0 0 O 0 56.6 427
21:13:47 9 1013 0 0 O 0 56.9 422
21:16:45 9 1013 0 0 O 0 56.8 423
21:19:46 9 1013 0 0 O 0 57.1 422
21:22:45 9 1013 0 0 O 0 58.1 432
21:25:46 9 1013 0 0 O 0 58.5 427
21:28:47 9 1013 0 0 O 0 58.7 427
21:31:46 8 1013 0 0 O 0 59.4 428
21:34:47 8 1013 0 0 O 0 60.2 437
21:37:45 8 1013 0 0 O 0 61 427
21:40:46 8 1013 0 0 O 0 61.7 430
21:43:52 8 1013 0 0 O 0 62 433
21:46:49 8 1013 0 0 O 0 62.8 437
21:49:45 8 1013 0 0 O 0 63.2 436
21:52:47 8 1013 0 0 O 0 64.6 435
21:55:46 8 1013 0 0 O 0 65.5 427
21:58:46 8 1013 0 0 O 0 66.3 430
22:01:46 8 1013 0 0 O 0 65.5 430
22:04:45 8 1013 0 0 O 0 65.7 430
22:07:47 7 1013 0 0 O 0 65.6 424
22:10:47 7 1013 0 0 O 0 67.1 422
22:13:48 7 1013 0 0 NO 0 69.1 431
22:16:48 7 1013 0 0 NW 0 69.9 434
22:19:49 7 1013 0 0 NW 0 70.6 428
22:22:48 7 1013 0 0 NW 0 70.6 428
22:25:44 7 1013 0 0 SO 0 70.1 424
22:28:47 7 1013 0 0 SO 0 71.4 427
22:31:46 7 1013 0 0 SO 0 71.8 427
22:34:49 7 1013 0 0 NO 0 72.7 420
22:37:45 7 1013 0 0 NO 0 73.3 424
22:40:45 6 1013 0 0 NO 0 72.5 425
22:43:46 6 1013 0 0 NO 0 73 431
22:46:48 6 1013 0 0 NO 0 74.9 439
22:49:48 6 1013 0 0 NO 0 75.6 439
22:52:47 6 1013 0 0 NO 0 76.3 433
22:55:46 6 1013 0 0 NO 0 75.7 433
22:58:45 6 1013 0 0 NO 0 75.5 436
23:01:48 6 1013 0 0 NO 0 75.9 442
23:04:45 6 1013 0 0 SO 0 76 445
23:07:49 6 1013 0 0 SO 0 76.8 442
23:10:44 6 1013 0 0 SO 0 76.9 445
23:13:44 6 1013 0 0 N 0 78.3 442
23:16:45 6 1013 0 1 N 0 83 448
23:19:48 6 1013 0 0 SO 0 82.2 451
23:22:47 6 1013 0 2 SO 0 80.8 454
23:25:44 6 1014 0 0 SO 0 79.2 451
23:28:49 6 1013 0 0 SO 0 79.1 446
23:31:47 5 1013 0 0 SO 0 79 445
23:34:48 5 1013 0 2 NW 0 79 442
23:37:50 5 1013 0 0 SO 0 80 443
23:40:49 5 1013 0 0 SO 0 80.2 452
23:43:46 5 1013 0 0 W 0 80.1 454
23:46:44 5 1013 0 0 O 0 80 460
23:49:47 5 1013 0 0 O 0 79.9 457
23:52:46 5 1013 0 0 O 0 79.8 451
23:55:44 5 1013 0 0 N 0 80.5 449
23:58:46 6 1013 0 0 NO 0 81.2 451

Letzte Änderung : 22-Jul-2022
Copyright Jens Köhler, Wolfsburg, Obere Dorfstraße 10d